Total_Precipitation_Accumulation
0.92 0.96 1.02 1.09 1.12 1.17 1.19 1.20 1.18 1.15 1.13 1.17 1.21 1.23 1.25 1.29 1.39 1.45 1.41 1.62 1.76 1.79 1.61 1.50 1.45 1.44 1.43 1.30 1.32 1.39 1.47 1.66 1.67 1.38 1.30 1.43 1.52 1.44 1.46 1.42 1.33 1.35 1.27
0.81 0.95 0.99 1.09 1.10 1.08 1.12 1.29 1.31 1.28 1.27 1.29 1.32 1.40 1.37 1.35 1.42 1.42 1.34 1.41 1.60 1.80 1.99 2.03 1.82 1.72 1.68 1.53 1.50 1.45 1.47 1.59 1.67 1.61 1.51 1.56 1.58 1.55 1.53 1.35 1.14 1.08 1.14
0.72 0.84 0.96 1.03 1.10 1.18 1.30 1.45 1.54 1.49 1.48 1.54 1.58 1.52 1.51 1.52 1.50 1.46 1.45 1.49 1.58 1.66 1.85 2.03 2.03 2.06 1.86 1.79 1.70 1.61 1.56 1.51 1.63 1.63 1.55 1.69 1.71 1.71 1.58 1.28 1.18 1.22 1.09
0.93 1.03 1.09 1.25 1.38 1.45 1.46 1.57 1.61 1.64 1.69 1.71 1.74 1.69 1.66 1.70 1.67 1.63 1.59 1.58 1.62 1.62 1.64 1.70 1.81 2.04 2.00 1.96 1.84 1.81 1.79 1.78 1.82 1.78 1.73 1.81 1.98 2.04 1.83 1.50 1.36 1.32 1.21
1.24 1.29 1.30 1.40 1.52 1.66 1.83 1.87 1.88 1.90 1.89 1.99 1.95 1.85 1.83 1.85 1.71 1.76 1.88 1.87 1.91 1.76 1.67 1.60 1.58 1.77 1.85 1.86 1.69 1.74 1.87 1.93 1.96 1.93 1.90 1.95 2.03 2.14 1.88 1.61 1.43 1.38 1.34
1.71 1.80 1.86 1.92 2.01 2.08 2.13 2.12 2.18 2.19 2.14 2.06 1.98 1.99 1.98 1.81 1.92 1.95 1.85 1.89 2.04 2.04 1.91 1.82 1.70 1.61 1.60 1.65 1.70 1.74 1.79 1.80 1.85 1.89 1.85 1.89 1.96 2.02 2.09 1.90 1.66 1.47 1.36
1.76 1.82 1.91 1.99 2.07 2.13 2.17 2.21 2.17 2.17 2.10 2.00 2.03 2.08 2.02 2.04 1.99 1.78 1.66 1.66 1.71 1.81 1.87 1.85 1.65 1.51 1.58 1.54 1.69 1.72 1.64 1.59 1.55 1.60 1.65 1.72 2.05 2.25 2.42 2.16 1.90 1.72 1.51
1.72 1.78 1.77 1.78 1.84 1.97 2.09 2.08 1.99 1.97 1.95 1.93 1.94 1.86 1.78 1.75 1.76 1.57 1.51 1.46 1.42 1.39 1.50 1.61 1.58 1.49 1.49 1.53 1.47 1.33 1.26 1.28 1.27 1.19 1.25 1.46 1.76 2.19 2.42 2.42 2.33 2.10 1.85
1.42 1.51 1.54 1.63 1.74 1.83 1.91 1.96 1.97 1.92 1.75 1.63 1.56 1.53 1.51 1.56 1.68 1.50 1.41 1.36 1.41 1.32 1.31 1.31 1.32 1.24 1.31 1.32 1.22 1.10 1.03 1.03 1.05 1.06 1.06 1.21 1.44 1.73 2.07 2.22 2.15 1.95 1.67
1.54 1.62 1.70 1.79 1.88 1.86 1.91 1.97 1.94 1.86 1.81 1.76 1.59 1.47 1.44 1.45 1.59 1.41 1.31 1.28 1.34 1.32 1.32 1.35 1.44 1.27 1.16 1.03 0.97 0.98 0.89 0.86 0.90 0.88 0.88 0.94 1.05 1.27 1.65 1.76 1.75 1.75 1.56
1.56 1.62 1.66 1.73 1.80 1.84 1.93 1.87 1.85 1.82 1.75 1.65 1.53 1.47 1.46 1.43 1.43 1.28 1.18 1.10 1.12 1.13 1.08 1.08 1.19 1.20 1.01 0.86 0.84 0.83 0.78 0.75 0.77 0.75 0.74 0.78 0.89 1.03 1.20 1.46 1.55 1.48 1.39
1.59 1.66 1.67 1.71 1.72 1.73 1.78 1.75 1.72 1.69 1.61 1.52 1.47 1.46 1.48 1.44 1.30 1.17 1.06 1.00 1.02 1.00 1.08 1.10 1.20 1.24 1.02 0.87 0.74 0.68 0.65 0.59 0.62 0.70 0.70 0.69 0.76 0.88 1.07 1.29 1.49 1.49 1.37
1.59 1.71 1.76 1.73 1.71 1.76 1.86 1.89 1.79 1.71 1.63 1.52 1.42 1.30 1.27 1.32 1.32 1.19 1.02 0.96 0.99 0.97 1.15 1.39 1.39 1.33 1.14 0.92 0.84 0.82 0.70 0.59 0.63 0.68 0.70 0.67 0.70 0.82 1.06 1.31 1.50 1.62 1.54
1.65 1.70 1.77 1.78 1.79 1.82 1.88 1.85 1.78 1.68 1.58 1.49 1.38 1.29 1.28 1.30 1.28 1.25 1.14 1.04 1.04 1.05 1.19 1.38 1.47 1.48 1.36 1.19 1.10 1.01 0.81 0.74 0.79 0.80 0.82 0.85 0.89 0.98 1.13 1.23 1.38 1.52 1.56
1.67 1.72 1.71 1.71 1.76 1.79 1.76 1.71 1.61 1.52 1.46 1.39 1.27 1.22 1.21 1.22 1.27 1.27 1.15 1.04 0.99 1.03 1.17 1.40 1.55 1.64 1.63 1.56 1.42 1.31 1.16 1.02 0.92 0.91 0.97 0.97 0.98 1.04 1.09 1.22 1.37 1.41 1.37
1.65 1.56 1.51 1.43 1.43 1.45 1.44 1.46 1.50 1.36 1.36 1.27 1.19 1.10 1.03 1.08 1.11 1.04 0.95 0.90 0.91 0.98 1.07 1.25 1.49 1.66 1.72 1.80 1.77 1.66 1.47 1.29 1.18 1.14 1.11 1.08 1.08 1.06 1.08 1.20 1.36 1.42 1.33
1.53 1.44 1.38 1.35 1.33 1.28 1.24 1.25 1.31 1.31 1.24 1.15 1.17 1.10 0.98 0.98 0.92 0.88 0.88 0.85 0.84 0.86 0.94 1.06 1.18 1.34 1.51 1.70 1.77 1.75 1.59 1.46 1.47 1.42 1.30 1.24 1.25 1.24 1.21 1.27 1.39 1.46 1.44
1.36 1.39 1.29 1.22 1.26 1.25 1.21 1.20 1.21 1.23 1.22 1.14 1.10 1.07 0.89 0.81 0.78 0.78 0.80 0.78 0.72 0.74 0.82 0.91 1.00 1.13 1.31 1.56 1.71 1.77 1.72 1.62 1.60 1.61 1.55 1.46 1.43 1.37 1.29 1.24 1.32 1.40 1.44
1.20 1.20 1.16 1.14 1.16 1.16 1.16 1.13 1.12 1.12 1.16 1.11 1.03 1.05 0.98 0.83 0.78 0.79 0.85 0.82 0.77 0.77 0.85 0.88 0.93 1.05 1.21 1.42 1.64 1.79 1.80 1.71 1.63 1.67 1.65 1.55 1.49 1.43 1.30 1.21 1.26 1.40 1.46
1.04 1.16 1.06 1.04 1.08 1.11 1.15 1.17 1.14 1.15 1.18 1.15 1.08 1.06 1.04 0.93 0.85 0.92 1.01 1.06 0.99 0.94 0.95 0.95 1.01 1.12 1.26 1.47 1.65 1.73 1.75 1.72 1.67 1.68 1.66 1.57 1.50 1.46 1.33 1.27 1.27 1.32 1.35
0.96 0.97 1.00 0.93 0.94 0.99 1.02 1.09 1.10 1.11 1.13 1.11 1.03 1.00 0.94 0.88 0.96 1.05 1.14 1.16 1.11 1.05 1.01 0.99 1.02 1.11 1.28 1.47 1.59 1.69 1.71 1.71 1.70 1.66 1.63 1.56 1.50 1.48 1.44 1.40 1.34 1.34 1.38
0.93 0.87 0.86 0.88 0.97 0.99 1.00 1.05 1.07 1.06 1.08 1.09 1.10 1.09 1.06 0.95 1.03 1.11 1.17 1.23 1.22 1.20 1.15 1.10 1.06 1.12 1.23 1.37 1.52 1.64 1.66 1.65 1.65 1.65 1.61 1.56 1.53 1.50 1.50 1.49 1.45 1.42 1.44
0.97 0.96 0.94 0.96 1.05 1.10 1.10 1.10 1.10 1.10 1.11 1.12 1.10 1.09 1.12 1.13 1.16 1.23 1.26 1.29 1.26 1.23 1.17 1.13 1.11 1.13 1.18 1.24 1.33 1.44 1.50 1.51 1.50 1.51 1.56 1.53 1.49 1.47 1.49 1.49 1.46 1.46 1.42
0.90 0.94 0.93 0.98 1.04 1.06 1.08 1.10 1.06 1.03 1.03 1.05 1.10 1.17 1.21 1.24 1.27 1.29 1.26 1.22 1.16 1.13 1.13 1.10 1.10 1.12 1.15 1.22 1.26 1.24 1.26 1.30 1.28 1.29 1.33 1.37 1.37 1.37 1.40 1.41 1.44 1.49 1.53
0.74 0.85 0.93 0.96 0.96 0.99 1.00 0.97 0.96 0.98 1.04 1.12 1.17 1.22 1.25 1.27 1.27 1.21 1.13 1.07 0.99 0.98 1.02 1.02 1.01 0.98 0.97 1.00 1.02 1.04 1.15 1.17 1.15 1.14 1.14 1.18 1.19 1.24 1.29 1.31 1.36 1.47 1.59
0.70 0.82 0.89 0.91 0.90 0.93 0.99 0.99 0.96 1.00 1.08 1.10 1.14 1.16 1.16 1.16 1.17 1.12 1.06 1.03 1.00 0.97 0.97 0.98 0.94 0.86 0.85 0.85 0.83 0.85 0.84 0.81 0.87 0.96 0.98 1.00 1.07 1.16 1.22 1.25 1.29 1.39 1.49